Luxeuil, France

11:24 AM CET on January 16, 2018 (GMT +0100)
Saint Sauveur Air Base

Weather History for LFSX - March, 2014

Change the Weather History Date:

Tuesday, March 18, 2014

  Actual Average Record
Temperature  
Mean Temperature 50 °F -  
Max Temperature 67 °F 55 °F 71 °F (2004)
Min Temperature 32 °F 36 °F 24 °F (1999)
Degree Days  
Heating Degree Days 16    
Moisture  
Dew Point 39 °F    
Average Humidity 65    
Maximum Humidity 93    
Minimum Humidity 26    
Precipitation  
Precipitation 0.00 in - - ()
Sea Level Pressure  
Sea Level Pressure 30.09 in    
Wind  
Wind Speed 3 mph ()    
Max Wind Speed 12 mph    
Max Gust Speed -    
Visibility 6.5 miles    
Events Fog    
Averages and records for this station are not official NWS values.
T = Trace of Precipitation, MM = Missing Value Source: Averaged Metar Reports

Daily Weather History Graph

Daily Weather History Graph

Search for Another Location

Airport or City:

Trip Planner

Search our weather history database for the weather conditions in past years. The results will help you decide how hot, cold, wet, or windy it might be!

Date:

Astronomy

Mar. 18, 2014 Rise Set
Actual Time 6:42 AM CET 6:44 PM CET
Civil Twilight 6:11 AM CET 7:14 PM CET
Nautical Twilight 5:35 AM CET 7:51 PM CET
Astronomical Twilight 4:58 AM CET 8:28 PM CET
Moon 8:56 PM CET (3/18) 7:13 AM CET (3/18)
Length of Visible Light 13h 03m
Length of Day
12h 02m
Full, 97% of the Moon is Illuminated
Mar 18
Full
Mar 24
Last Quarter
Mar 30
New
Apr 7
First Quarter
Apr 15
Full

Hourly Weather History & Observations

Time (CET) Temp. Dew Point Humidity Pressure Visibility Wind Dir Wind Speed Gust Speed Precip Events Conditions
12:00 AM 40 °F 36 °F 78% 30.18 in 7 mi East 2.3 mph - -   Clear
12:00 AM 41.0 °F 35.6 °F 81% 30.12 in 6.2 mi East 2.3 mph - N/A   Unknown
12:30 AM 37.4 °F 33.8 °F 87% 30.12 in 6.2 mi Calm Calm - N/A   Unknown
1:00 AM 38 °F 35 °F 86% 30.17 in 8 mi Calm Calm - -   Clear
1:00 AM 37.4 °F 35.6 °F 93% 30.12 in 6.2 mi Calm Calm - N/A   Unknown
1:30 AM 37.4 °F 33.8 °F 87% 30.12 in 6.2 mi Calm Calm - N/A   Unknown
2:00 AM 36 °F 34 °F 90% 30.17 in 9 mi East 1.2 mph - -   Clear
2:00 AM 37.4 °F 33.8 °F 87% 30.12 in 6.2 mi Calm Calm - N/A   Unknown
2:30 AM 35.6 °F 30.2 °F 81% 30.09 in 3.1 mi Calm Calm - N/A   Mist
3:00 AM 34 °F 33 °F 92% 30.15 in 6 mi Calm Calm - -   Clear
3:00 AM 33.8 °F 32.0 °F 93% 30.09 in 6.2 mi Calm Calm - N/A   Unknown
3:30 AM 35.6 °F 33.8 °F 93% 30.09 in 2.2 mi Calm Calm - N/A   Mist
4:00 AM 33 °F 31 °F 91% 30.14 in 9 mi SE 2.3 mph - -   Clear
4:00 AM 33.8 °F 32.0 °F 93% 30.09 in 6.2 mi SE 2.3 mph - N/A   Unknown
4:30 AM 33.8 °F 32.0 °F 93% 30.06 in 6.2 mi ESE 2.3 mph - N/A   Unknown
5:00 AM 35.6 °F 33.8 °F 93% 30.06 in 6.2 mi Calm Calm - N/A   Unknown
5:30 AM 32.0 °F 30.2 °F 93% 30.06 in 1.6 mi WSW 1.2 mph - N/A   Mist
6:00 AM 32.0 °F 30.2 °F 93% 30.06 in 0.2 mi Calm Calm - N/A Fog Fog
6:30 AM 32.0 °F 30.2 °F 93% 30.06 in 1.4 mi Calm Calm - N/A   Mist
7:00 AM 32.0 °F 28.4 °F 87% 30.09 in 6.2 mi Calm Calm - N/A   Unknown
7:30 AM 33.8 °F 30.2 °F 87% 30.09 in 6.2 mi East 2.3 mph - N/A   Unknown
8:00 AM 38 °F 34 °F 79% 30.13 in 10 mi SE 1.2 mph - -   Clear
8:00 AM 37.4 °F 33.8 °F 87% 30.09 in 6.2 mi Calm Calm - N/A   Unknown
8:30 AM 42.8 °F 37.4 °F 81% 30.09 in 6.2 mi Calm Calm - N/A   Unknown
9:00 AM 47 °F 39 °F 67% 30.12 in 11 mi Calm Calm - -   Clear
9:00 AM 46.4 °F 39.2 °F 76% 30.09 in 6.2 mi Calm Calm - N/A   Unknown
9:30 AM 51.8 °F 41.0 °F 67% 30.09 in 6.2 mi Calm Calm - N/A   Unknown
10:00 AM 54 °F 41 °F 51% 30.10 in 31 mi SE 2.3 mph - -   Clear
10:00 AM 53.6 °F 41.0 °F 62% 30.09 in 6.2 mi Variable 2.3 mph - N/A   Unknown
10:30 AM 59.0 °F 42.8 °F 55% 30.06 in 6.2 mi Variable 2.3 mph - N/A   Unknown
11:00 AM 59 °F 42 °F 42% 30.08 in 11 mi South 2.3 mph - -   Clear
11:00 AM 59.0 °F 42.8 °F 55% 30.06 in 6.2 mi Variable 2.3 mph - N/A   Unknown
11:30 AM 60.8 °F 42.8 °F 52% 30.06 in 6.2 mi Variable 2.3 mph - N/A   Unknown
12:00 PM 63 °F 43 °F 37% 30.07 in 12 mi South 3.5 mph - -   Clear
12:00 PM 62.6 °F 42.8 °F 48% 30.06 in 6.2 mi Variable 3.5 mph - N/A   Unknown
12:30 PM 64.4 °F 42.8 °F 45% 30.06 in 6.2 mi SW 8.1 mph - N/A   Unknown
1:00 PM 65 °F 44 °F 34% 30.05 in 11 mi SW 11.5 mph - -   Clear
1:00 PM 64.4 °F 42.8 °F 45% 30.06 in 6.2 mi SW 11.5 mph - N/A   Unknown
1:30 PM 66.2 °F 41.0 °F 40% 30.04 in 6.2 mi SSW 9.2 mph - N/A   Unknown
2:00 PM 66 °F 42 °F 30% 30.02 in 12 mi WSW 8.1 mph - -   Clear
2:00 PM 66.2 °F 41.0 °F 40% 30.04 in 6.2 mi WSW 8.1 mph - N/A   Unknown
2:30 PM 66.2 °F 41.0 °F 40% 30.01 in 6.2 mi West 11.5 mph - N/A   Unknown
3:00 PM 66 °F 39 °F 26% 30.01 in 34 mi West 11.5 mph - -   Clear
3:00 PM 66.2 °F 39.2 °F 37% 30.01 in 6.2 mi West 11.5 mph - N/A   Unknown
3:30 PM 66.2 °F 41.0 °F 40% 30.01 in 6.2 mi WSW 10.4 mph - N/A   Unknown
4:00 PM 65 °F 40 °F 28% 30.01 in 34 mi WSW 8.1 mph - -   Clear
4:00 PM 64.4 °F 41.0 °F 42% 30.01 in 6.2 mi WSW 8.1 mph - N/A   Unknown
4:30 PM 64.4 °F 41.0 °F 42% 30.01 in 6.2 mi WSW 9.2 mph - N/A   Unknown
5:00 PM 64 °F 44 °F 37% 30.01 in 34 mi WSW 6.9 mph - -   Clear
5:00 PM 64.4 °F 44.6 °F 49% 30.01 in 6.2 mi WSW 6.9 mph - N/A   Unknown
5:30 PM 62.6 °F 42.8 °F 48% 30.01 in 6.2 mi NW 11.5 mph - N/A   Unknown
6:00 PM 60 °F 45 °F 46% 30.04 in 10 mi WNW 6.9 mph - -   Clear
6:00 PM 59.0 °F 44.6 °F 59% 30.04 in 6.2 mi WNW 6.9 mph - N/A   Unknown
6:30 PM 59.0 °F 44.6 °F 59% 30.04 in 6.2 mi WNW 5.8 mph - N/A   Unknown
7:00 PM 58 °F 43 °F 46% 30.07 in 10 mi WNW 10.4 mph - -   Clear
7:00 PM 57.2 °F 42.8 °F 59% 30.06 in 6.2 mi WNW 10.4 mph - N/A   Unknown
7:30 PM 57.2 °F 41.0 °F 55% 30.06 in 6.2 mi North - - N/A   Unknown
8:00 PM 55.4 °F 39.2 °F 54% 30.09 in 6.2 mi North - - N/A   Unknown
8:30 PM 53.6 °F 41.0 °F 62% 30.12 in 6.2 mi North - - N/A   Unknown
9:00 PM 51 °F 42 °F 61% 30.17 in 7 mi Calm Calm - -   Clear
9:00 PM 51.8 °F 41.0 °F 67% 30.15 in 6.2 mi North - - N/A   Mostly Cloudy
9:30 PM 50.0 °F 41.0 °F 71% 30.18 in 5.6 mi North - - N/A   Mostly Cloudy
10:00 PM 49 °F 42 °F 69% 30.22 in 5 mi Calm Calm - -   Clear
10:00 PM 50.0 °F 42.8 °F 76% 30.18 in 5.0 mi North - - N/A   Overcast
10:30 PM 50.0 °F 42.8 °F 76% 30.21 in 5.0 mi North - - N/A   Overcast
11:00 PM 50 °F 42 °F 64% 30.24 in 6 mi Calm Calm - -   Clear
11:00 PM 50.0 °F 41.0 °F 71% 30.21 in 6.2 mi North - - N/A   Overcast
11:30 PM 50.0 °F 41.0 °F 71% 30.21 in 6.2 mi North - - N/A   Overcast